This is the latest recevied weather packets stored in our database for station/object N5LSN. If no packets are shown the sender has not sent any weather packets the latest 10 day(s).
| Time | Temp. | Humidity | Pressure | Rain* | Wind** | Luminosity | Snow |
|---|---|---|---|---|---|---|---|
| 1777304616 | 24.44° C | 91% | 1010.5 hPa | 0 mm | - | 350 W/m² | - |
| 1777304308 | 24.44° C | 92% | 1010.5 hPa | 0 mm | - | 79 W/m² | - |
| 1777304005 | 24.44° C | 92% | 1010.5 hPa | 0 mm | - | 402 W/m² | - |
| 1777303701 | 24.44° C | 91% | 1010.4 hPa | 0 mm | - | 227 W/m² | - |
| 1777303398 | 23.89° C | 92% | 1010.6 hPa | 0 mm | - | 448 W/m² | - |
| 1777303096 | 23.89° C | 92% | 1010.4 hPa | 0 mm | - | 162 W/m² | - |
| 1777302794 | 23.89° C | 93% | 1010.4 hPa | 0 mm | - | 177 W/m² | - |
| 1777302492 | 23.89° C | 92% | 1010.2 hPa | 0 mm | - | 163 W/m² | - |
| 1777302190 | 23.89° C | 92% | 1010.3 hPa | 0 mm | - | 223 W/m² | - |
| 1777301887 | 23.33° C | 93% | 1010.3 hPa | 0 mm | - | 188 W/m² | - |
| 1777301583 | 23.33° C | 93% | 1010.4 hPa | 0 mm | - | 146 W/m² | - |
| 1777301281 | 23.33° C | 93% | 1010.5 hPa | 0 mm | - | 121 W/m² | - |
| 1777300977 | 23.33° C | 93% | 1010.3 hPa | 0 mm | - | 174 W/m² | - |
| 1777300675 | 23.33° C | 93% | 1010.4 hPa | 0 mm | - | 96 W/m² | - |
| 1777300373 | 23.33° C | 93% | 1010.5 hPa | 0 mm | - | 152 W/m² | - |
| 1777300069 | 23.33° C | 93% | 1010.5 hPa | 0 mm | - | 76 W/m² | - |
| 1777299766 | 23.33° C | 93% | 1010.4 hPa | 0 mm | - | 71 W/m² | - |
| 1777299463 | 23.33° C | 94% | 1010.3 hPa | 0 mm | - | 71 W/m² | - |
| 1777299161 | 23.33° C | 94% | 1010.3 hPa | 0 mm | - | 60 W/m² | - |
| 1777298853 | 23.33° C | 93% | 1010.2 hPa | 0 mm | - | 72 W/m² | - |
| 1777298549 | 23.33° C | 93% | 1010 hPa | 0 mm | - | 106 W/m² | - |
| 1777298245 | 23.33° C | 93% | 1009.8 hPa | 0 mm | - | 139 W/m² | - |
| 1777297941 | 22.78° C | 93% | 1009.7 hPa | 0 mm | - | 106 W/m² | - |
| 1777297633 | 22.78° C | 94% | 1009.8 hPa | 0 mm | - | 92 W/m² | - |
| 1777297330 | 22.78° C | 94% | 1009.9 hPa | 0 mm | - | 85 W/m² | - |
* Rain latest hour (hover to see other rain measurements)
** Current wind speed in m/s (hover to see current wind gust speed)